DJ2DS-13 Weather Reports


Display with metric or nautical units.
time (UTC)temp
F
wind
direction
speed
MPH
gust
MPH
rain 1hr
in
rain 24hr
in
rain mn
in
humidity
%
barometer
mb
20260502130334 72 278 10.0 14.0 0.00 0.00 0.00 47 1014.7
20260502123331 75 240 11.0 16.0 0.00 0.00 0.00 35 1014.6
20260502122829 75 241 9.0 19.0 0.00 0.00 0.00 37 1014.7
20260502122329 74 227 13.0 19.0 0.00 0.00 0.00 39 1014.7
20260502121830 74 279 10.0 14.0 0.00 0.00 0.00 36 1014.7
20260502121330 74 209 7.0 18.0 0.00 0.00 0.00 34 1014.7
20260502120829 76 228 11.0 22.0 0.00 0.00 0.00 35 1014.7
20260502120330 75 219 12.0 22.0 0.00 0.00 0.00 31 1014.8
20260502115830 74 188 13.0 16.0 0.00 0.00 0.00 36 1014.9
20260502115330 73 185 9.0 17.0 0.00 0.00 0.00 37 1014.8
20260502114830 73 200 11.0 20.0 0.00 0.00 0.00 39 1015.0
20260502114330 73 199 15.0 21.0 0.00 0.00 0.00 36 1015.0
20260502113831 74 227 9.0 21.0 0.00 0.00 0.00 34 1015.1
20260502113331 74 204 14.0 20.0 0.00 0.00 0.00 35 1015.1
20260502112830 74 212 11.0 20.0 0.00 0.00 0.00 35 1015.2
20260502112330 74 203 15.0 20.0 0.00 0.00 0.00 34 1015.3
20260502111830 74 223 15.0 19.0 0.00 0.00 0.00 38 1015.4
20260502111331 73 221 14.0 20.0 0.00 0.00 0.00 36 1015.3
20260502110830 73 216 13.0 20.0 0.00 0.00 0.00 35 1015.4
20260502110330 74 180 13.0 22.0 0.00 0.00 0.00 36 1015.4
20260502105830 74 210 13.0 23.0 0.00 0.00 0.00 35 1015.3
20260502105330 74 195 16.0 23.0 0.00 0.00 0.00 35 1015.4
20260502104830 74 193 11.0 22.0 0.00 0.00 0.00 38 1015.4
20260502104331 75 221 17.0 22.0 0.00 0.00 0.00 36 1015.3
20260502103831 74 214 13.0 23.0 0.00 0.00 0.00 37 1015.4
20260502103330 74 204 14.0 23.0 0.00 0.00 0.00 39 1015.4
20260502102830 75 196 13.0 21.0 0.00 0.00 0.00 35 1015.5
20260502102330 74 217 16.0 21.0 0.00 0.00 0.00 36 1015.5
20260502101830 74 210 14.0 20.0 0.00 0.00 0.00 38 1015.4
20260502101330 74 217 13.0 19.0 0.00 0.00 0.00 40 1015.6
20260502100830 74 217 13.0 19.0 0.00 0.00 0.00 41 1015.7
20260502100330 74 196 12.0 22.0 0.00 0.00 0.00 38 1015.7
20260502091330 71 210 12.0 15.0 0.00 0.00 0.00 46 1016.0
20260502090830 71 233 10.0 14.0 0.00 0.00 0.00 46 1016.0
20260502090329 71 210 10.0 14.0 0.00 0.00 0.00 46 1016.0
20260502071320 62 221 14.0 18.0 0.00 0.00 0.00 57 1016.8
20260502070819 62 157 11.0 16.0 0.00 0.00 0.00 56 1016.8
20260502070318 62 182 7.0 17.0 0.00 0.00 0.00 60 1016.8
20260502065817 61 188 8.0 17.0 0.00 0.00 0.00 58 1016.9
20260502065318 61 192 13.0 17.0 0.00 0.00 0.00 58 1016.8
20260502064819 61 192 10.0 15.0 0.00 0.00 0.00 58 1016.9
20260502064318 60 186 8.0 15.0 0.00 0.00 0.00 61 1016.8
20260502063813 60 200 9.0 15.0 0.00 0.00 0.00 61 1016.8
20260502063315 59 193 7.0 15.0 0.00 0.00 0.00 62 1017.0
20260502062815 59 192 7.0 13.0 0.00 0.00 0.00 64 1016.9
20260502062314 58 183 7.0 13.0 0.00 0.00 0.00 64 1016.9
20260502061814 58 186 5.0 13.0 0.00 0.00 0.00 66 1016.8
20260502061314 58 202 5.0 11.0 0.00 0.00 0.00 65 1017.0
20260502060814 57 162 5.0 11.0 0.00 0.00 0.00 66 1017.0
20260502060313 57 133 4.0 11.0 0.00 0.00 0.00 66 1017.1
20260502055813 57 154 4.0 11.0 0.00 0.00 0.00 67 1017.1
20260502055313 56 180 4.0 10.0 0.00 0.00 0.00 67 1017.0
20260502054813 56 173 3.0 9.0 0.00 0.00 0.00 68 1017.1
20260502054313 55 155 3.0 9.0 0.00 0.00 0.00 69 1017.1
20260502053813 55 161 4.0 9.0 0.00 0.00 0.00 69 1017.2
20260502053312 54 179 4.0 9.0 0.00 0.00 0.00 71 1017.1
20260502052810 54 182 4.0 7.0 0.00 0.00 0.00 72 1017.2
20260502052312 53 158 4.0 7.0 0.00 0.00 0.00 73 1017.3
20260502051809 53 168 4.0 10.0 0.00 0.00 0.00 73 1017.2
20260502051311 53 162 5.0 10.0 0.00 0.00 0.00 73 1017.3
20260502050806 53 172 4.0 7.0 0.00 0.00 0.00 73 1017.2
20260502050307 52 161 3.0 7.0 0.00 0.00 0.00 73 1017.2
20260502045806 52 169 3.0 7.0 0.00 0.00 0.00 74 1017.3
20260502045307 51 183 4.0 7.0 0.00 0.00 0.00 74 1017.2
20260502044807 51 169 3.0 7.0 0.00 0.00 0.00 77 1017.3
20260502044306 50 169 3.0 7.0 0.00 0.00 0.00 79 1017.2
20260502043803 50 157 2.0 6.0 0.00 0.00 0.00 80 1017.1
20260502043303 50 149 3.0 5.0 0.00 0.00 0.00 80 1017.2
20260502042804 50 147 2.0 3.0 0.00 0.00 0.00 80 1017.1
20260502042306 50 138 2.0 6.0 0.00 0.00 0.00 80 1017.2
20260502041804 50 142 1.0 6.0 0.00 0.00 0.00 80 1017.2
20260502041302 50 145 2.0 4.0 0.00 0.00 0.00 80 1017.3
20260502040802 50 144 2.0 4.0 0.00 0.00 0.00 80 1017.3
20260502040302 50 130 2.0 4.0 0.00 0.00 0.00 79 1017.4
20260502035802 50 135 2.0 4.0 0.00 0.00 0.00 79 1017.4
20260502035306 50 148 2.0 4.0 0.00 0.00 0.00 79 1017.4
20260502034801 50 145 3.0 4.0 0.00 0.00 0.00 79 1017.5
20260502034301 50 145 2.0 4.0 0.00 0.00 0.00 78 1017.5
20260502033802 50 149 2.0 5.0 0.00 0.00 0.00 79 1017.5
20260502033301 50 141 2.0 5.0 0.00 0.00 0.00 79 1017.5
20260502032802 50 154 3.0 6.0 0.00 0.00 0.00 79 1017.5
20260502032306 50 145 3.0 6.0 0.00 0.00 0.00 79 1017.6
20260502031801 50 152 3.0 6.0 0.00 0.00 0.00 79 1017.6
20260502031302 50 148 3.0 6.0 0.00 0.00 0.00 80 1017.7
20260502030801 50 144 2.0 7.0 0.00 0.00 0.00 79 1017.6
20260502030302 50 133 4.0 7.0 0.00 0.00 0.00 80 1017.8
20260502025802 50 148 3.0 5.0 0.00 0.00 0.00 80 1017.8
20260502025302 50 134 3.0 5.0 0.00 0.00 0.00 79 1017.8
20260502024801 50 149 3.0 5.0 0.00 0.00 0.00 79 1017.9
20260502024301 50 138 2.0 5.0 0.00 0.00 0.00 79 1017.9
20260502023801 50 142 3.0 5.0 0.00 0.00 0.00 80 1017.9
20260502023302 50 145 2.0 5.0 0.00 0.00 0.00 79 1018.0
20260502022802 51 131 2.0 5.0 0.00 0.00 0.00 79 1018.0
20260502022301 51 147 2.0 4.0 0.00 0.00 0.00 78 1018.1
20260502021801 51 152 2.0 4.0 0.00 0.00 0.00 77 1018.1
20260502021301 51 144 2.0 4.0 0.00 0.00 0.00 76 1018.2
20260502020801 51 152 2.0 4.0 0.00 0.00 0.00 76 1018.3
20260502020302 51 145 2.0 5.0 0.00 0.00 0.00 76 1018.3
20260502015801 51 128 2.0 5.0 0.00 0.00 0.00 75 1018.3
20260502015305 52 138 3.0 4.0 0.00 0.00 0.00 75 1018.3
20260502014759 52 151 2.0 4.0 0.00 0.00 0.00 75 1018.5
20260502014257 52 145 2.0 5.0 0.00 0.00 0.00 75 1018.4
20260502013754 52 151 2.0 5.0 0.00 0.00 0.00 75 1018.5
20260502013253 53 141 2.0 5.0 0.00 0.00 0.00 75 1018.6
20260502012753 53 133 2.0 5.0 0.00 0.00 0.00 74 1018.7
20260502012252 53 144 2.0 4.0 0.00 0.00 0.00 74 1018.8
20260502011751 53 147 2.0 4.0 0.00 0.00 0.00 73 1018.9
20260502011251 52 144 2.0 3.0 0.00 0.00 0.00 73 1018.9
20260502010751 53 145 2.0 3.0 0.00 0.00 0.00 72 1018.9
20260502010250 53 145 1.0 3.0 0.00 0.00 0.00 72 1019.0
20260502005751 53 148 2.0 3.0 0.00 0.00 0.00 72 1019.1
20260502005248 53 144 1.0 3.0 0.00 0.00 0.00 71 1019.2
20260502004748 54 172 1.0 3.0 0.00 0.00 0.00 71 1019.2
20260502004249 54 157 2.0 3.0 0.00 0.00 0.00 70 1019.2
20260502003748 54 141 2.0 3.0 0.00 0.00 0.00 70 1019.2
20260502003249 54 159 2.0 4.0 0.00 0.00 0.00 69 1019.3
20260502002748 54 155 2.0 4.0 0.00 0.00 0.00 69 1019.3
20260502002245 55 166 1.0 3.0 0.00 0.00 0.00 69 1019.4
20260502001744 55 192 2.0 3.0 0.00 0.00 0.00 69 1019.4
20260502001243 55 178 1.0 4.0 0.00 0.00 0.00 68 1019.4
20260502000742 55 155 2.0 4.0 0.00 0.00 0.00 66 1019.5
20260502000242 56 162 1.0 5.0 0.00 0.00 0.00 63 1019.5
20260501235741 56 141 3.0 7.0 0.00 0.00 0.00 63 1019.5
20260501235241 57 151 3.0 7.0 0.00 0.00 0.00 63 1019.5
20260501234741 57 135 3.0 6.0 0.00 0.00 0.00 63 1019.6
20260501234240 57 148 3.0 9.0 0.00 0.00 0.00 63 1019.5
20260501233738 57 154 5.0 11.0 0.00 0.00 0.00 63 1019.6
20260501233238 57 104 3.0 11.0 0.00 0.00 0.00 64 1019.5
20260501232738 57 116 4.0 11.0 0.00 0.00 0.00 63 1019.7
20260501232238 57 107 4.0 9.0 0.00 0.00 0.00 63 1019.6
20260501231738 57 120 3.0 9.0 0.00 0.00 0.00 62 1019.5
20260501231238 57 133 5.0 9.0 0.00 0.00 0.00 62 1019.7
20260501230738 57 137 4.0 9.0 0.00 0.00 0.00 63 1019.6
20260501230239 57 99 3.0 9.0 0.00 0.00 0.00 63 1019.6
20260501225739 57 157 4.0 9.0 0.00 0.00 0.00 62 1019.6
20260501225239 57 125 2.0 9.0 0.00 0.00 0.00 62 1019.7
20260501224736 57 131 3.0 9.0 0.00 0.00 0.00 63 1019.8
20260501224238 57 116 3.0 9.0 0.00 0.00 0.00 62 1019.8
20260501223737 57 107 3.0 10.0 0.00 0.00 0.00 64 1019.9
20260501223247 58 165 3.0 10.0 0.00 0.00 0.00 64 1019.9
20260501222743 58 135 3.0 10.0 0.00 0.00 0.00 63 1019.9
20260501222244 58 161 2.0 10.0 0.00 0.00 0.00 64 1019.9
20260501221741 58 104 3.0 7.0 0.00 0.00 0.00 61 1019.9
20260501221239 58 83 3.0 7.0 0.00 0.00 0.00 63 1019.9
20260501220739 58 109 4.0 9.0 0.00 0.00 0.00 61 1020.0
20260501220238 58 110 3.0 9.0 0.00 0.00 0.00 62 1020.1
20260501215741 58 131 3.0 9.0 0.00 0.00 0.00 63 1020.1
20260501215235 58 114 4.0 9.0 0.00 0.00 0.00 64 1020.1
20260501214736 58 120 4.0 7.0 0.00 0.00 0.00 63 1020.1
20260501214234 58 102 2.0 7.0 0.00 0.00 0.00 62 1020.1
20260501213732 58 140 3.0 7.0 0.00 0.00 0.00 64 1020.2
20260501213233 58 121 3.0 9.0 0.00 0.00 0.00 61 1020.2
20260501212731 58 109 3.0 9.0 0.00 0.00 0.00 59 1020.2
20260501212230 59 97 3.0 7.0 0.00 0.00 0.00 62 1020.2
20260501211731 59 99 4.0 9.0 0.00 0.00 0.00 59 1020.4
20260501211230 59 118 3.0 9.0 0.00 0.00 0.00 60 1020.4
20260501210730 59 104 4.0 7.0 0.00 0.00 0.00 59 1020.3
20260501210229 59 120 3.0 5.0 0.00 0.00 0.00 60 1020.3
20260501205729 59 82 3.0 5.0 0.00 0.00 0.00 62 1020.4
20260501205229 59 82 3.0 7.0 0.00 0.00 0.00 62 1020.4
20260501204730 59 107 4.0 7.0 0.00 0.00 0.00 60 1020.3
20260501204229 60 110 3.0 7.0 0.00 0.00 0.00 58 1020.5
20260501203730 60 93 3.0 6.0 0.00 0.00 0.00 58 1020.5
20260501203229 60 109 3.0 7.0 0.00 0.00 0.00 57 1020.5
20260501202729 60 120 4.0 7.0 0.00 0.00 0.00 57 1020.5
20260501202229 60 92 2.0 6.0 0.00 0.00 0.00 56 1020.6
20260501201729 60 123 4.0 6.0 0.00 0.00 0.00 57 1020.7
20260501201228 61 114 4.0 6.0 0.00 0.00 0.00 56 1020.7
20260501200728 61 138 4.0 6.0 0.00 0.00 0.00 57 1020.8
20260501200227 61 116 2.0 5.0 0.00 0.00 0.00 57 1020.8
20260501195731 62 92 2.0 7.0 0.00 0.00 0.00 55 1020.8
20260501195229 62 109 3.0 7.0 0.00 0.00 0.00 55 1020.8
20260501194727 62 151 3.0 6.0 0.00 0.00 0.00 56 1020.9
20260501194226 62 111 3.0 5.0 0.00 0.00 0.00 57 1020.8
20260501193727 62 113 2.0 5.0 0.00 0.00 0.00 57 1020.9
20260501193227 62 99 2.0 5.0 0.00 0.00 0.00 56 1021.0
20260501192724 63 117 2.0 5.0 0.00 0.00 0.00 54 1020.9
20260501192223 63 134 2.0 5.0 0.00 0.00 0.00 62 1021.0
20260501191723 64 123 3.0 5.0 0.00 0.00 0.00 56 1021.0
20260501191223 65 137 2.0 4.0 0.00 0.00 0.00 60 1020.9
20260501190724 65 140 2.0 5.0 0.00 0.00 0.00 59 1020.9
20260501190222 65 135 3.0 7.0 0.00 0.00 0.00 49 1021.0
20260501185721 66 152 3.0 7.0 0.00 0.00 0.00 48 1020.9
20260501185220 66 133 2.0 7.0 0.00 0.00 0.00 49 1020.9
20260501184718 67 152 3.0 6.0 0.00 0.00 0.00 48 1020.9
20260501184218 67 134 3.0 5.0 0.00 0.00 0.00 48 1020.9
20260501183720 68 125 3.0 5.0 0.00 0.00 0.00 46 1021.0
20260501183216 69 142 2.0 7.0 0.00 0.00 0.00 44 1020.8
20260501182716 69 118 3.0 7.0 0.00 0.00 0.00 43 1020.9
20260501182216 70 109 4.0 13.0 0.00 0.00 0.00 42 1020.7
20260501181711 70 134 4.0 13.0 0.00 0.00 0.00 41 1020.7
20260501181210 70 116 4.0 12.0 0.00 0.00 0.00 41 1020.7
20260501180708 71 130 5.0 12.0 0.00 0.00 0.00 41 1020.6
20260501180210 71 114 4.0 11.0 0.00 0.00 0.00 44 1020.7
20260501175708 71 97 4.0 12.0 0.00 0.00 0.00 41 1020.7
20260501175208 71 148 5.0 12.0 0.00 0.00 0.00 42 1020.7
20260501174705 71 149 3.0 11.0 0.00 0.00 0.00 41 1020.9
20260501174205 71 148 2.0 11.0 0.00 0.00 0.00 40 1020.9
20260501173705 71 128 4.0 11.0 0.00 0.00 0.00 40 1021.0
20260501173208 72 142 2.0 10.0 0.00 0.00 0.00 39 1021.0
20260501172705 72 124 4.0 12.0 0.00 0.00 0.00 37 1021.0
20260501172204 72 144 6.0 15.0 0.00 0.00 0.00 38 1021.0
20260501171703 72 113 4.0 15.0 0.00 0.00 0.00 37 1021.0
20260501171203 72 113 5.0 13.0 0.00 0.00 0.00 36 1021.0
20260501170703 73 138 5.0 14.0 0.00 0.00 0.00 36 1021.0
20260501170203 73 99 4.0 14.0 0.00 0.00 0.00 35 1021.1
20260501165704 73 110 4.0 15.0 0.00 0.00 0.00 35 1021.2
20260501165203 73 154 6.0 15.0 0.00 0.00 0.00 35 1021.2
20260501164703 73 102 7.0 15.0 0.00 0.00 0.00 36 1021.3
20260501164202 73 149 6.0 20.0 0.00 0.00 0.00 35 1021.3
20260501163701 73 118 6.0 20.0 0.00 0.00 0.00 36 1021.4
20260501163200 73 141 9.0 16.0 0.00 0.00 0.00 36 1021.5
20260501162200 73 117 4.0 15.0 0.00 0.00 0.00 36 1021.5
20260501161659 73 148 6.0 15.0 0.00 0.00 0.00 36 1021.7
20260501161200 73 103 6.0 15.0 0.00 0.00 0.00 36 1021.8
20260501160700 73 138 8.0 14.0 0.00 0.00 0.00 35 1021.7
20260501160201 73 109 5.0 18.0 0.00 0.00 0.00 36 1021.9
20260501155700 74 117 4.0 18.0 0.00 0.00 0.00 34 1021.8
20260501155158 74 121 5.0 18.0 0.00 0.00 0.00 36 1021.9
20260501154658 74 71 6.0 14.0 0.00 0.00 0.00 35 1022.0
20260501154157 74 151 6.0 15.0 0.00 0.00 0.00 37 1022.0
20260501153657 74 102 5.0 15.0 0.00 0.00 0.00 37 1022.1
20260501153157 74 58 6.0 15.0 0.00 0.00 0.00 36 1022.1
20260501152658 74 190 6.0 14.0 0.00 0.00 0.00 36 1022.3
20260501152155 74 158 5.0 14.0 0.00 0.00 0.00 35 1022.3
20260501151656 74 71 4.0 14.0 0.00 0.00 0.00 36 1022.4
20260501151155 74 106 4.0 14.0 0.00 0.00 0.00 35 1022.6
20260501150654 74 162 4.0 14.0 0.00 0.00 0.00 37 1022.5
20260501150155 73 135 7.0 14.0 0.00 0.00 0.00 36 1022.6